Regional Weather Roundup
Issued by NWS

Home | Current Version | Previous Version | Text Only | Print | Product List | Glossary Off
Versions: 1 2 3 4 5 6 7 8 9 10 11 12 13 14 15 16 17 18 19 20 21 22 23 24 25 26 27 28 29 30 31 32 33 34 35 36 37 38 39 40 41 42 43 44 45 46 47 48 49 50

000
ASUS43 KOAX 220510
RWRNE

WEATHER ROUNDUP FOR NEBRASKA
NATIONAL WEATHER SERVICE OMAHA NE
1200 AM CDT TUE AUG 22 2017

NOTES: SATELLITE DATA IS BEING USED TO AUGMENT CLOUD COVER ABOVE
       12000 FEET.
       "FAIR" INDICATES FEW OR NO CLOUDS BELOW 12,000 FEET WITH NO
       SIGNIFICANT WEATHER AND/OR OBSTRUCTIONS TO VISIBILITY.


NEZ001>004-019>022-054>056-220600-
NEBRASKA PANHANDLE

CITY           SKY/WX    TMP DP  RH WIND       PRES   REMARKS
SCOTTSBLUFF    CLEAR     62  48  60 S6        30.23R
ALLIANCE       CLEAR     54  47  77 NE8       30.21R
CHADRON        CLEAR     57  45  64 CALM      30.20R
GORDON         FAIR      54  46  74 NE6       30.22R
KIMBALL        CLEAR     59  47  66 E6        30.28S
SIDNEY         CLEAR     58  49  72 N9        30.25R
$$

NEZ057>060-069>072-079>082-220600-
SOUTHWEST NEBRASKA

CITY           SKY/WX    TMP DP  RH WIND       PRES   REMARKS
NORTH PLATTE   CLEAR     66  63  90 N6        30.13R
IMPERIAL       CLEAR     64  61  90 N7        30.14R
LEXINGTON      CLOUDY    70  65  82 NE10      30.10R
MCCOOK         CLEAR     72  66  81 N16       30.07R
OGALLALA       CLEAR     66  63  89 NE7       30.16R
$$

NEZ005>010-023>029-035>040-094-220600-
NORTH CENTRAL NEBRASKA

CITY           SKY/WX    TMP DP  RH WIND       PRES   REMARKS
VALENTINE      CLEAR     66  47  50 N10       30.16R
AINSWORTH      CLEAR     60  56  88 N9        30.15R
BROKEN BOW     CLEAR     68  65  90 N5        30.11R
O`NEILL        PTCLDY    64  64 100 W3        30.09R FOG
ORD            CLEAR     63  60  90 NW6       30.08R
THEDFORD       CLEAR     63  60  90 N5        30.16R
$$

NEZ041-046>049-061>064-073>077-083>087-220600-
SOUTH CENTRAL NEBRASKA

CITY           SKY/WX    TMP DP  RH WIND       PRES   REMARKS
GRAND ISLAND   CLOUDY    67  66  97 N8        30.05S
AURORA         MOCLDY    66  65  97 N5        30.04S
HASTINGS       PTCLDY    69  64  84 NE10      30.05R
HEBRON         PTCLDY    76  72  87 N13       29.98R
HOLDREGE       MOCLDY    70  64  81 N15G21    30.07R
KEARNEY        CLOUDY    69  66  90 N13       30.07R
YORK           CLOUDY    66  66 100 NE9       30.02F
$$

NEZ011>018-030>034-042>045-220600-
NORTHEAST NEBRASKA

CITY           SKY/WX    TMP DP  RH WIND       PRES   REMARKS
NORFOLK        PTCLDY    63  63 100 W5        30.03R
ALBION         CLEAR     64  64  99 NW7       30.06S
BLAIR          HVY RAIN  65  65  97 CALM      29.99S
COLUMBUS       CLOUDY    65  65 100 CALM      30.03S
FREMONT        CLOUDY    66  65  99 W3        30.00S
TEKAMAH        CLOUDY    65  63  93 SW3       29.97S
WAYNE          CLOUDY    65  62  91 W3        30.01F FOG
$$

NEZ050>053-065>068-078-088>093-220600-
SOUTHEAST NEBRASKA

CITY           SKY/WX    TMP DP  RH WIND       PRES   REMARKS
LINCOLN        CLOUDY    67  65  93 NE8       30.01R
OMAHA EPPLEY   CLOUDY    67  63  87 S9        29.97F
BEATRICE       CLOUDY    73  68  86 NE16G22   30.00R
FALLS CITY     CLOUDY    71  69  93 S3        29.94R
NEBRASKA CITY  TSTM      65  65 100 E13       30.02R
PLATTSMOUTH    CLOUDY    65  64  96 SE7       30.00F
$$

NEZ044-045-051>053-067-220600-
OMAHA AREA

CITY           SKY/WX    TMP DP  RH WIND       PRES   REMARKS
OMAHA EPPLEY   CLOUDY    67  63  87 S9        29.97F
BLAIR          HVY RAIN  65  65  97 CALM      29.99S
FREMONT        CLOUDY    66  65  99 W3        30.00S
MILLARD        CLOUDY    67  65  94 SE3       29.97F
OFFUTT AFB     CLOUDY    66  64  94 SE3       29.96F
PLATTSMOUTH    CLOUDY    65  64  96 SE7       30.00F
WAHOO          LGT RAIN  66  66  97 CALM      29.99F
$$




USA.gov is the U.S. government's official web portal to all federal, state and local government web resources and services.